Location: Observatoire de l'Aigle
(47.0607°N, 71.3152°W)
Time: 22:03:17
(UTC-04:00)

Daily predictions for brighter satellites

Satellite Brightness Start Highest point End
(mag) Time Altitude Azimuth Time Altitude Azimuth Time Altitude Azimuth
Gbstr 26 Del rocket 3.9 18:17:11 10° WNW 18:21:41 50° N 18:27:16 10° E
Meteor 2-15 4.4 18:19:00 10° N 18:25:07 79° E 18:31:14 10° SSE
Meteor 1-16 Rocket 4.2 18:20:09 10° S 18:25:16 52° E 18:30:27 10° NNE
Cosmos 1833 Rocket 4.4 18:23:36 10° WSW 18:28:39 33° NW 18:33:44 10° NNE
YAOGAN 1 2.6 18:29:02 10° SSE 18:33:22 89° ENE 18:37:44 10° NNW
ALOS 2.8 18:29:15 10° SE 18:33:33 39° ENE 18:37:54 10° N
MONITOR-E 4.3 18:30:37 10° SSE 18:33:37 51° ENE 18:36:39 10° N
Cosmos 1484 Rocket 3.8 18:30:56 10° S 18:34:34 49° W 18:38:12 10° NNW
GP-B 3.3 18:30:45 10° NNE 18:35:05 49° E 18:39:23 10° SSE
FENGYUN 3A 4.0 18:30:19 10° SE 18:35:23 43° ENE 18:40:29 10° N
MOS 1 4.3 18:32:04 10° SSE 18:37:43 77° ENE 18:43:26 10° NNW
Meteor 2-14 Rocket 4.4 18:32:33 10° S 18:38:35 67° E 18:44:37 10° NNE
Cosmos 1703 3.8 18:35:07 10° N 18:38:50 38° ENE 18:42:30 10° SE
CZ-2C R/B 3.8 18:35:35 10° NNE 18:40:10 81° WNW 18:44:39 10° SSW
Meteor 2-16 Rocket 4.5 18:35:04 10° S 18:41:02 61° E 18:47:04 10° NNE
Landsat 4 4.1 18:37:57 10° N 18:41:41 69° WNW 18:45:22 10° SSW
CZ-4 R/B 2.5 18:37:47 10° S 18:41:55 52° W 18:46:01 10° NNW
Abrixas rocket 2.6 18:40:18 10° SW 18:43:30 48° SSE 18:46:10 14° E
Cosmos 2219 Rocket 3.6 18:39:58 10° N 18:44:03 20° NE 18:47:31 12° E
USA 234 4.0 18:40:46 10° ENE 18:46:46 40° N 18:52:48 10° NW
Cosmos 1624 Rocket 4.2 18:42:29 10° NNW 18:47:42 77° WSW 18:52:55 10° SSE
Cosmos 1400 Rocket 2.8 18:43:48 10° N 18:47:52 60° ENE 18:51:49 10° SSE
Thor Agena Rocket 4.3 18:45:51 10° NE 18:50:17 29° E 18:54:38 10° SSE
Cosmos-2242 3.2 18:46:11 10° SSW 18:50:27 76° W 18:54:44 10° N
SKYMED 2 3.5 18:48:54 10° NNE 18:53:16 70° ESE 18:57:35 10° S
SL-16 R/B 2.8 18:48:02 10° NNW 18:53:39 61° WSW 18:59:13 10° S
BREEZE-M DEB (TANK) 3.9 18:40:12 10° WSW 18:54:36 76° S 18:58:15 16° E
Tiangong 1 3.7 18:55:09 10° SW 18:55:54 11° SSW 18:56:38 10° S
Meteor 1-28 Rocket 4.0 18:52:16 10° N 18:56:01 56° WNW 18:59:43 10° SSW
Cosmos 1420 Rocket 4.4 18:53:15 10° N 18:58:20 42° ENE 19:03:20 10° SE
ERS-2 4.3 18:55:35 10° SSW 18:58:54 31° W 19:02:15 10° NW
Cosmos 1743 Rocket 3.5 18:55:42 10° N 19:00:05 86° E 19:04:29 10° S
Iridium 4 Rocket 4.2 18:57:46 10° SSE 19:02:46 37° E 19:08:04 10° NNE
Cosmos 2151 2.9 18:59:20 10° N 19:03:38 73° ENE 19:07:54 10° SSE
Cosmos 1908 3.9 19:01:15 10° SSE 19:04:45 32° E 19:08:16 10° NNE
GRACE-2 3.7 19:03:51 10° SSE 19:06:22 51° E 19:08:54 10° N
Envisat 4.3 19:06:03 18° E 19:07:37 21° ENE 19:11:18 10° NNE
GRACE-1 3.6 19:05:38 10° SSE 19:08:10 57° E 19:10:44 10° N
Cosmos 1842 Rocket 3.5 19:05:53 10° S 19:10:20 74° E 19:14:48 10° NNE
Cosmos 2237 Rocket 3.7 19:07:58 10° N 19:12:02 19° NE 19:13:50 17° ENE
H-2A R/B 3.1 19:08:54 10° SE 19:12:35 44° ENE 19:16:20 10° N
Resurs 01 Rocket 2.9 19:12:24 21° ENE 19:13:01 21° ENE 19:16:21 10° NNE
Cosmos 2366 rocket 4.1 19:09:15 10° S 19:15:29 81° W 19:21:42 10° N
SL-16 R/B 4.1 19:17:16 10° N 19:19:29 12° NNE 19:20:51 11° NE
Cosmos 2221 2.8 19:18:05 10° SSE 19:22:10 44° E 19:26:19 10° NNE
Cosmos 1500 Rocket 3.7 19:18:08 10° NNW 19:22:30 73° W 19:26:49 10° S
FREGAT/IRIS 2.4 19:23:45 18° SSE 19:25:49 70° ENE 19:28:49 10° N
CZ-2D R/B 4.0 19:26:21 31° ENE 19:26:28 31° ENE 19:29:55 10° N
Cosmos 1315 Rocket 2.7 19:24:40 10° N 19:28:44 87° ENE 19:32:50 10° S
Cosmos 158 Rocket 4.3 19:25:19 10° S 19:29:57 38° ESE 19:34:44 10° NE
Cosmos 921 Rocket 3.0 19:25:46 10° NNW 19:30:17 85° ENE 19:34:42 10° SSE
COSMOS 2428 2.8 19:25:15 10° NNW 19:30:52 56° ENE 19:34:16 23° SE
Resurs 1-3 4.5 19:31:04 29° ENE 19:31:05 29° ENE 19:34:52 10° N
Cosmos 2333 Rocket 2.9 19:29:06 10° NNW 19:34:21 35° NE 19:36:00 30° E
CSL-04 DEB 4.4 19:31:51 20° SSE 19:34:36 60° ENE 19:38:36 10° N
HJ-1C 3.3 19:36:22 46° SE 19:37:07 62° ENE 19:40:31 10° N
Cosmos 2360 Rocket 2.6 19:32:25 10° NNW 19:38:01 65° WSW 19:43:37 10° SSE
Cosmos 2058 3.9 19:34:17 10° NNW 19:38:20 48° W 19:42:20 10° SSW
MOS 1-B Rocket 4.1 19:35:00 22° SE 19:38:28 49° ENE 19:44:16 10° N
Cosmos 1461 4.2 19:35:14 10° WSW 19:39:04 38° NW 19:43:05 10° NNE
Cosmos 1833 4.1 19:34:49 10° SSW 19:40:31 85° ESE 19:46:12 10° NNE
COSMO-SKYMED 1 4.0 19:37:13 10° N 19:41:15 39° WNW 19:45:17 10° SW
Cosmos 2098 Rocket 3.3 19:38:04 10° SSE 19:42:12 54° E 19:47:30 10° NNE
FengYun 1-2 T 4.2 19:37:14 10° SSE 19:42:45 89° WSW 19:48:17 10° NNW
Meteor 2-1 Rocket 4.4 19:37:44 10° SSW 19:43:31 77° WNW 19:49:26 10° N
RESURS DK-1 3.0 19:39:39 10° NW 19:43:43 56° WSW 19:47:05 14° S
Cosmos 2322 Rocket 4.4 19:39:13 10° NW 19:43:44 25° WSW 19:48:15 10° SSW
Cosmos 1626 4.4 19:41:50 10° NNW 19:45:02 27° W 19:48:13 10° SSW
Cosmos 2219 3.7 19:40:32 10° S 19:45:36 35° ESE 19:45:36 35° ESE
SL-24 R/B - RUBIN 2 4.2 19:42:01 10° NW 19:46:54 58° WSW 19:49:57 19° SSE
NOSS 0 Rocket 4.4 19:41:04 10° NNW 19:46:55 42° NE 19:48:32 35° E
Cosmos 468 4.4 19:42:10 10° S 19:47:18 64° ESE 19:52:30 10° NNE
Cosmos 1000 Rocket 4.4 19:45:19 10° N 19:51:37 89° ENE 19:57:49 10° S
USA 267 3.4 19:49:38 31° ENE 19:52:28 50° SE 19:58:46 10° SSW
Cosmos 1452 Rocket 4.2 19:47:55 10° NNW 19:53:03 55° WSW 19:58:10 10° S
Cosmos 1821 Rocket 3.9 19:47:00 10° S 19:53:05 69° E 19:59:18 10° NNE
BREEZE-M DEB (TANK) 3.6 19:51:59 10° SW 19:52:36 18° SW 19:52:36 18° SW
BREEZE M DEB (TANK) 4.4 19:34:28 10° WNW 19:55:08 85° NNE 19:57:34 39° E
Lacrosse 5 rocket 3.2 19:52:13 10° WNW 19:55:57 26° NNW 19:57:43 20° NNE
SL-8 R/B 3.9 19:51:26 10° SW 19:56:05 50° SSE 19:56:26 49° SE
SJ-6B 2.9 19:55:12 28° S 19:57:05 71° WSW 20:00:49 10° NNW
Sich 1 3.0 19:53:59 10° N 19:58:06 59° ENE 19:58:06 59° ENE
Cosmos 1805 Rocket 3.5 19:56:13 10° N 20:00:36 87° W 20:02:32 33° S
ATLAS 5 CENTAUR R/B 4.4 19:57:49 10° NNW 20:00:40 14° N 20:03:31 10° NNE
Cosmos 2239 Rocket 4.3 19:56:00 10° S 20:02:08 80° E 20:08:18 10° N
Cosmos 1934 Rocket 4.0 19:56:18 10° S 20:02:32 63° E 20:08:50 10° NNE
Cosmos 2322 4.5 19:57:50 10° NW 20:03:24 52° WSW 20:08:54 10° S
Atlas Centaur 2 4.2 20:00:27 10° SSW 20:03:27 15° S 20:04:35 14° SSE
Cosmos 1666 Rocket 3.5 20:04:37 10° N 20:08:35 68° NNE 20:08:35 68° NNE
Gbstr 26 Del rocket 3.6 20:03:58 10° WNW 20:09:09 85° NNE 20:10:30 56° ESE
ALOS 4.4 20:07:11 10° SSW 20:11:06 26° W 20:15:02 10° NW
BREEZE M DEB (TANK) 2.9 20:07:32 10° WNW 20:10:25 42° W 20:10:25 42° W
Spot 2 Rocket 3.4 20:11:22 65° E 20:11:36 66° ENE 20:16:37 10° N
CZ-4C R/B 3.3 20:09:49 10° S 20:12:17 27° S 20:12:17 27° S
Cosmos 1110 Rocket 4.1 20:10:51 10° NNW 20:15:50 57° NE 20:15:50 57° NE
Cosmos 2123 Rocket 3.8 20:11:31 10° N 20:17:47 83° E 20:20:47 33° SSE
Cosmos 1633 Rocket 3.5 20:14:47 10° N 20:18:10 51° N 20:18:10 51° N
Abrixas rocket 4.0 20:16:49 10° W 20:18:42 31° W 20:18:42 31° W
Aureole 2 Rocket 3.9 20:16:45 10° NNW 20:19:04 36° NNW 20:19:04 36° NNW
Cosmos 1605 Rocket 3.9 20:27:39 63° ENE 20:27:39 63° ENE 20:33:09 10° NNE
Cosmos 2219 Rocket 2.0 20:23:09 10° NNW 20:28:48 88° WSW 20:29:17 76° SSE
USA 234 3.2 20:28:01 58° E 20:29:15 71° NNE 20:35:47 10° NW
Cosmos 1048 Rocket 4.1 20:32:26 10° SSW 20:37:33 68° WNW 20:38:42 51° N
Envisat 3.3 20:46:16 63° W 20:46:16 63° W 20:51:15 10° NNW
Meteor 2-3 Rocket 4.3 20:41:43 10° N 20:45:53 47° N 20:45:53 47° N
Resurs 01 Rocket 2.8 20:50:00 41° WNW 20:50:00 41° WNW 20:53:28 10° NNW
Cosmos 2237 Rocket 2.7 20:51:13 10° NNW 20:55:40 56° NNW 20:55:40 56° NNW
SL-16 R/B 3.6 20:59:39 10° NNW 21:02:44 30° N 21:02:44 30° N
COSMOS 2428 4.5 21:10:10 10° NW 21:14:45 26° WSW 21:16:20 23° SW
Cosmos 2333 Rocket 3.2 21:13:19 10° NW 21:18:02 42° W 21:18:02 42° W
H-2A R/B 4.5 21:39:42 16° N 21:39:42 16° N 21:40:42 10° N
USA 267 3.8 21:37:01 52° WNW 21:37:01 52° WNW 21:42:04 10° WSW
ATLAS 5 CENTAUR R/B 4.4 21:43:09 10° NNW 21:45:03 17° N 21:45:03 17° N
